Regional Weather Roundup
Issued by NWS

Home | Current Version | Previous Version | Text Only | Print | Product List | Glossary Off
Versions: 1 2 3 4 5 6 7 8 9 10 11 12 13 14 15 16 17 18 19 20 21 22 23 24 25 26 27 28 29 30 31 32 33 34 35 36 37 38 39 40 41 42 43 44 45 46 47 48 49 50

000
ASUS43 KOAX 300510
RWRNE

WEATHER ROUNDUP FOR NEBRASKA
NATIONAL WEATHER SERVICE OMAHA NE
1200 AM CDT WED JUL 30 2014

NOTES: SATELLITE DATA IS BEING USED TO AUGMENT CLOUD COVER ABOVE
       12000 FEET.
       "FAIR" INDICATES FEW OR NO CLOUDS BELOW 12,000 FEET WITH NO
       SIGNIFICANT WEATHER AND/OR OBSTRUCTIONS TO VISIBILITY.

  * THESE STATIONS DO NOT REPORT WEATHER SUCH AS RAIN...SNOW OR FOG.

NEZ001>004-019>022-054>056-300600-
NEBRASKA PANHANDLE

CITY           SKY/WX    TMP DP  RH WIND       PRES   REMARKS
SCOTTSBLUFF    LGT RAIN  65  64  97 W3        30.26F
ALLIANCE       CLOUDY    66  54  65 E7        30.25R
CHADRON        CLOUDY    60  55  83 CALM      30.23S
KIMBALL        HVY RAIN  59  58  97 E3        30.28S
SIDNEY         LGT RAIN  63  60  90 NW7       30.28R FOG
$$

NEZ057>060-069>072-079>082-300600-
SOUTHWEST NEBRASKA

CITY           SKY/WX    TMP DP  RH WIND       PRES   REMARKS
NORTH PLATTE   CLOUDY    66  60  81 E6        30.19S
IMPERIAL       CLOUDY    71  58  63 E12       30.19R
LEXINGTON      CLOUDY    69  60  73 E6        30.17S
MCCOOK         CLOUDY    70  58  65 E12       30.15S
OGALLALA       CLOUDY    67  60  78 E3        30.21S
$$

NEZ005>010-023>029-035>040-094-300600-
NORTH CENTRAL NEBRASKA

CITY           SKY/WX    TMP DP  RH WIND       PRES   REMARKS
VALENTINE      MOCLDY    59  50  72 CALM      30.20S
AINSWORTH      MOCLDY    58  53  85 CALM      30.20S
BROKEN BOW     CLOUDY    67  59  75 CALM      30.19R
O`NEILL        PTCLDY    62  55  76 S3        30.18S
ORD            MOCLDY    62  59  90 CALM      30.17S
THEDFORD       CLOUDY    64  57  77 CALM      30.22S
$$

NEZ041-046>049-061>064-073>077-083>087-300600-
SOUTH CENTRAL NEBRASKA

CITY           SKY/WX    TMP DP  RH WIND       PRES   REMARKS
GRAND ISLAND   CLOUDY    68  60  75 CALM      30.17S
AURORA         CLOUDY    66  63  91 E5        30.17S
HASTINGS       CLOUDY    68  55  63 E6        30.16S
HEBRON         MOCLDY    66  57  72 CALM      30.15R
HOLDREGE       CLOUDY    67  60  78 E6        30.16S
KEARNEY *      CLOUDY    66  57  72 E8        30.17S
YORK           MOCLDY    64  59  82 E5        30.17S
$$

NEZ011>018-030>034-042>045-300600-
NORTHEAST NEBRASKA

CITY           SKY/WX    TMP DP  RH WIND       PRES   REMARKS
NORFOLK        CLEAR     58  54  86 CALM      30.16R
ALBION         PTCLDY    59  55  87 CALM      30.18S
BLAIR          CLEAR     63  54  74 CALM      30.13S
COLUMBUS *     PTCLDY    59  54  82 CALM      30.16S
FREMONT        CLEAR     64  59  83 CALM      30.15S
TEKAMAH        CLEAR     58  54  86 W3        30.13S
WAYNE          CLEAR     56  55  95 CALM      30.16R
$$

NEZ050>053-065>068-078-088>093-300600-
SOUTHEAST NEBRASKA

CITY           SKY/WX    TMP DP  RH WIND       PRES   REMARKS
LINCOLN        PTCLDY    64  57  78 CALM      30.15S
OMAHA EPPLEY   CLEAR     65  58  78 CALM      30.13F
BEATRICE       PTCLDY    61  57  85 NE5       30.14S
FALLS CITY     CLEAR     66  58  75 CALM      30.12S
NEBRASKA CITY  CLEAR     64  57  78 CALM      30.14S
PLATTSMOUTH    CLEAR     65  55  69 CALM      30.14R
$$

NEZ044-045-051>053-067-300600-
OMAHA AREA

CITY           SKY/WX    TMP DP  RH WIND       PRES   REMARKS
OMAHA EPPLEY   CLEAR     65  58  78 CALM      30.13F
BLAIR          CLEAR     63  54  74 CALM      30.13S
FREMONT        CLEAR     64  59  83 CALM      30.15S
MILLARD        CLEAR     63  58  83 CALM      30.13S
OFFUTT AFB     CLEAR     56  56  99 CALM      30.12F
PLATTSMOUTH    CLEAR     65  55  69 CALM      30.14R
WAHOO          FAIR      61  57  87 N3        30.15R
$$


USA.gov is the U.S. government's official web portal to all federal, state and local government web resources and services.